Time,TemperatureF,DewpointF,PressureIn,WindDirection,WindDirectionDegrees,WindSpeedMPH,WindSpeedGustMPH,Humidity,HourlyPrecipIn,Conditions,Clouds,dailyrainin,SolarRadiationWatts/m^2,SoftwareType,DateUTC
2013-06-09 00:02:00,60.0,45.0,-100.00,NE,41,2.0,4.0,57,-99.99,,,0.00,0.000000,,2013-06-09 06:02:00,
2013-06-09 00:11:00,60.0,45.0,-100.00,NE,41,2.0,4.0,57,-99.99,,,0.00,0.000000,,2013-06-09 06:11:00,
2013-06-09 00:32:00,56.0,45.0,-100.00,NNE,20,3.0,6.0,67,-99.99,,,0.00,0.000000,,2013-06-09 06:32:00,
2013-06-09 00:42:00,56.0,45.0,-100.00,NNE,20,3.0,6.0,67,-99.99,,,0.00,0.000000,,2013-06-09 06:42:00,
2013-06-09 00:52:00,56.0,45.0,-100.00,NNE,20,3.0,6.0,67,-99.99,,,0.00,0.000000,,2013-06-09 06:52:00,
2013-06-09 01:02:00,56.0,45.0,-100.00,NNE,20,3.0,6.0,67,-99.99,,,0.00,0.000000,,2013-06-09 07:02:00,
2013-06-09 01:12:00,56.0,45.0,-100.00,NNE,20,3.0,6.0,67,-99.99,,,0.00,0.000000,,2013-06-09 07:12:00,
2013-06-09 01:42:00,51.0,44.0,-100.00,ENE,57,5.0,6.0,78,-99.99,,,0.00,0.000000,,2013-06-09 07:42:00,
2013-06-09 01:52:00,51.0,44.0,-100.00,ENE,57,5.0,6.0,78,-99.99,,,0.00,0.000000,,2013-06-09 07:52:00,
2013-06-09 02:02:00,51.0,44.0,-100.00,ENE,57,5.0,6.0,78,-99.99,,,0.00,0.000000,,2013-06-09 08:02:00,
2013-06-09 02:12:00,51.0,44.0,-100.00,ENE,57,5.0,6.0,78,-99.99,,,0.00,0.000000,,2013-06-09 08:12:00,
2013-06-09 02:32:00,51.0,44.0,-100.00,East,101,2.0,5.0,78,-99.99,,,0.00,0.000000,,2013-06-09 08:32:00,
2013-06-09 02:42:00,51.0,44.0,-100.00,East,101,2.0,5.0,78,-99.99,,,0.00,0.000000,,2013-06-09 08:42:00,
2013-06-09 02:53:00,51.0,44.0,-100.00,East,101,2.0,5.0,78,-99.99,,,0.00,0.000000,,2013-06-09 08:53:00,
2013-06-09 03:02:00,51.0,44.0,-100.00,East,101,2.0,5.0,78,-99.99,,,0.00,0.000000,,2013-06-09 09:02:00,
2013-06-09 03:12:00,51.0,44.0,-100.00,East,101,2.0,5.0,78,-99.99,,,0.00,0.000000,,2013-06-09 09:12:00,
2013-06-09 03:33:00,52.0,42.0,-100.00,East,85,3.0,6.0,68,-99.99,,,-99.99,0.000000,,2013-06-09 09:33:00,
2013-06-09 03:43:00,52.0,42.0,-100.00,East,85,3.0,6.0,68,-99.99,,,-99.99,0.000000,,2013-06-09 09:43:00,
2013-06-09 03:52:00,52.0,42.0,-100.00,East,85,3.0,6.0,68,-99.99,,,-99.99,0.000000,,2013-06-09 09:52:00,
2013-06-09 04:03:00,52.0,42.0,-100.00,East,85,3.0,6.0,68,-99.99,,,-99.99,0.000000,,2013-06-09 10:03:00,
2013-06-09 04:12:00,52.0,42.0,-100.00,East,85,3.0,6.0,68,-99.99,,,-99.99,0.000000,,2013-06-09 10:12:00,
2013-06-09 04:43:00,53.0,42.0,-100.00,ESE,103,5.0,7.0,66,-99.99,,,0.00,0.000000,,2013-06-09 10:43:00,
2013-06-09 04:52:00,53.0,42.0,-100.00,ESE,103,5.0,7.0,66,-99.99,,,0.00,0.000000,,2013-06-09 10:52:00,
2013-06-09 05:02:00,53.0,42.0,-100.00,ESE,103,5.0,7.0,66,-99.99,,,0.00,0.000000,,2013-06-09 11:02:00,
2013-06-09 05:12:00,53.0,42.0,-100.00,ESE,103,5.0,7.0,66,-99.99,,,0.00,0.000000,,2013-06-09 11:12:00,
2013-06-09 05:32:00,57.0,42.0,-100.00,ESE,111,5.0,9.0,58,-99.99,,,0.00,0.000000,,2013-06-09 11:32:00,
2013-06-09 05:42:00,57.0,42.0,-100.00,ESE,111,5.0,9.0,58,-99.99,,,0.00,0.000000,,2013-06-09 11:42:00,
2013-06-09 05:52:00,57.0,42.0,-100.00,ESE,111,5.0,9.0,58,-99.99,,,0.00,0.000000,,2013-06-09 11:52:00,
2013-06-09 06:02:00,57.0,42.0,-100.00,ESE,111,5.0,9.0,58,-99.99,,,0.00,0.000000,,2013-06-09 12:02:00,
2013-06-09 06:12:00,57.0,42.0,-100.00,ESE,111,5.0,9.0,58,-99.99,,,0.00,0.000000,,2013-06-09 12:12:00,
2013-06-09 06:42:00,57.0,43.0,-100.00,ESE,109,6.0,11.0,58,-99.99,,,0.00,15.920000,,2013-06-09 12:42:00,
2013-06-09 06:52:00,57.0,43.0,-100.00,ESE,109,6.0,11.0,58,-99.99,,,0.00,15.920000,,2013-06-09 12:52:00,
2013-06-09 07:02:00,57.0,43.0,-100.00,ESE,109,6.0,11.0,58,-99.99,,,0.00,15.920000,,2013-06-09 13:02:00,
2013-06-09 07:12:00,57.0,43.0,-100.00,ESE,109,6.0,11.0,58,-99.99,,,0.00,15.920000,,2013-06-09 13:12:00,
2013-06-09 07:42:00,57.0,44.0,-100.00,ESE,114,6.0,11.0,61,-99.99,,,-99.99,119.129997,,2013-06-09 13:42:00,
2013-06-09 07:52:00,57.0,44.0,-100.00,ESE,114,6.0,11.0,61,-99.99,,,-99.99,119.129997,,2013-06-09 13:52:00,
2013-06-09 08:02:00,57.0,44.0,-100.00,ESE,114,6.0,11.0,61,-99.99,,,-99.99,119.129997,,2013-06-09 14:02:00,
2013-06-09 08:12:00,57.0,44.0,-100.00,ESE,114,6.0,11.0,61,-99.99,,,-99.99,119.129997,,2013-06-09 14:12:00,
2013-06-09 08:42:00,59.0,46.0,-100.00,ESE,112,7.0,11.0,62,-99.99,,,0.00,121.330002,,2013-06-09 14:42:00,
2013-06-09 08:52:00,59.0,46.0,-100.00,ESE,112,7.0,11.0,62,-99.99,,,0.00,121.330002,,2013-06-09 14:52:00,
2013-06-09 09:02:00,59.0,46.0,-100.00,ESE,112,7.0,11.0,62,-99.99,,,0.00,121.330002,,2013-06-09 15:02:00,
2013-06-09 09:12:00,59.0,46.0,-100.00,ESE,112,7.0,11.0,62,-99.99,,,0.00,121.330002,,2013-06-09 15:12:00,
2013-06-09 09:43:00,64.0,48.0,-100.00,SSE,150,7.0,12.0,54,-99.99,,,0.00,423.970001,,2013-06-09 15:43:00,
2013-06-09 09:53:00,64.0,48.0,-100.00,SSE,150,7.0,12.0,54,-99.99,,,0.00,423.970001,,2013-06-09 15:53:00,
2013-06-09 10:03:00,64.0,48.0,-100.00,SSE,150,7.0,12.0,54,-99.99,,,0.00,423.970001,,2013-06-09 16:03:00,
2013-06-09 10:13:00,64.0,48.0,-100.00,SSE,150,7.0,12.0,54,-99.99,,,0.00,423.970001,,2013-06-09 16:13:00,
2013-06-09 10:33:00,67.0,48.0,-100.00,South,171,10.0,14.0,51,-99.99,,,0.00,651.989990,,2013-06-09 16:33:00,
2013-06-09 10:42:00,67.0,48.0,-100.00,South,171,10.0,14.0,51,-99.99,,,0.00,651.989990,,2013-06-09 16:42:00,
2013-06-09 10:53:00,67.0,48.0,-100.00,South,171,10.0,14.0,51,-99.99,,,0.00,651.989990,,2013-06-09 16:53:00,
2013-06-09 11:02:00,67.0,48.0,-100.00,South,171,10.0,14.0,51,-99.99,,,0.00,651.989990,,2013-06-09 17:02:00,
2013-06-09 11:12:00,67.0,48.0,-100.00,South,171,10.0,14.0,51,-99.99,,,0.00,651.989990,,2013-06-09 17:12:00,
2013-06-09 11:42:00,70.0,46.0,-100.00,SSW,200,9.0,16.0,42,-99.99,,,0.00,681.400024,,2013-06-09 17:42:00,
2013-06-09 11:52:00,70.0,46.0,-100.00,SSW,200,9.0,16.0,42,-99.99,,,0.00,681.400024,,2013-06-09 17:52:00,
2013-06-09 12:02:00,70.0,46.0,-100.00,SSW,200,9.0,16.0,42,-99.99,,,0.00,681.400024,,2013-06-09 18:02:00,
2013-06-09 12:12:00,70.0,46.0,-100.00,SSW,200,9.0,16.0,42,-99.99,,,0.00,681.400024,,2013-06-09 18:12:00,
2013-06-09 12:42:00,72.0,42.0,-100.00,SW,216,9.0,15.0,34,-99.99,,,0.00,844.919983,,2013-06-09 18:42:00,
2013-06-09 12:52:00,72.0,42.0,-100.00,SW,216,9.0,15.0,34,-99.99,,,0.00,844.919983,,2013-06-09 18:52:00,
2013-06-09 13:02:00,72.0,42.0,-100.00,SW,216,9.0,15.0,34,-99.99,,,0.00,844.919983,,2013-06-09 19:02:00,
2013-06-09 13:12:00,72.0,42.0,-100.00,SW,216,9.0,15.0,34,-99.99,,,0.00,844.919983,,2013-06-09 19:12:00,
2013-06-09 13:32:00,73.0,32.0,-100.00,WNW,288,19.0,28.0,21,-99.99,,,-99.99,918.140015,,2013-06-09 19:32:00,
2013-06-09 13:42:00,73.0,32.0,-100.00,WNW,288,19.0,28.0,21,-99.99,,,-99.99,918.140015,,2013-06-09 19:42:00,
2013-06-09 13:52:00,73.0,32.0,-100.00,WNW,288,19.0,28.0,21,-99.99,,,-99.99,918.140015,,2013-06-09 19:52:00,
2013-06-09 14:02:00,73.0,32.0,-100.00,WNW,288,19.0,28.0,21,-99.99,,,-99.99,918.140015,,2013-06-09 20:02:00,
2013-06-09 14:12:00,73.0,32.0,-100.00,WNW,288,19.0,28.0,21,-99.99,,,-99.99,918.140015,,2013-06-09 20:12:00,
2013-06-09 15:12:00,74.0,33.0,-100.00,West,278,15.0,24.0,22,-99.99,,,-99.99,918.140015,,2013-06-09 21:12:00,
2013-06-09 15:43:00,74.0,34.0,-100.00,West,276,12.0,19.0,22,-99.99,,,-99.99,891.409973,,2013-06-09 21:43:00,
2013-06-09 15:53:00,74.0,34.0,-100.00,West,276,12.0,19.0,22,-99.99,,,-99.99,891.409973,,2013-06-09 21:53:00,
2013-06-09 16:02:00,74.0,34.0,-100.00,West,276,12.0,19.0,22,-99.99,,,-99.99,891.409973,,2013-06-09 22:02:00,
2013-06-09 16:12:00,74.0,34.0,-100.00,West,276,12.0,19.0,22,-99.99,,,-99.99,891.409973,,2013-06-09 22:12:00,
2013-06-09 16:33:00,74.0,35.0,-100.00,WSW,240,12.0,22.0,23,-99.99,,,-99.99,780.419983,,2013-06-09 22:33:00,
2013-06-09 16:42:00,74.0,35.0,-100.00,WSW,240,12.0,22.0,23,-99.99,,,-99.99,780.419983,,2013-06-09 22:42:00,
2013-06-09 16:52:00,74.0,35.0,-100.00,WSW,240,12.0,22.0,23,-99.99,,,-99.99,780.419983,,2013-06-09 22:52:00,
2013-06-09 17:02:00,74.0,35.0,-100.00,WSW,240,12.0,22.0,23,-99.99,,,-99.99,780.419983,,2013-06-09 23:02:00,
2013-06-09 17:12:00,74.0,35.0,-100.00,WSW,240,12.0,22.0,23,-99.99,,,-99.99,780.419983,,2013-06-09 23:12:00,
2013-06-09 17:32:00,74.0,36.0,-100.00,WSW,250,12.0,20.0,24,-99.99,,,0.00,649.669983,,2013-06-09 23:32:00,
2013-06-09 17:42:00,74.0,36.0,-100.00,WSW,250,12.0,20.0,24,-99.99,,,0.00,649.669983,,2013-06-09 23:42:00,
2013-06-09 17:52:00,74.0,36.0,-100.00,WSW,250,12.0,20.0,24,-99.99,,,0.00,649.669983,,2013-06-09 23:52:00,
2013-06-09 18:02:00,74.0,36.0,-100.00,WSW,250,12.0,20.0,24,-99.99,,,0.00,649.669983,,2013-06-10 00:02:00,
2013-06-09 18:12:00,74.0,36.0,-100.00,WSW,250,12.0,20.0,24,-99.99,,,0.00,649.669983,,2013-06-10 00:12:00,
2013-06-09 18:42:00,73.0,36.0,-100.00,WSW,239,10.0,16.0,25,-99.99,,,0.00,499.279999,,2013-06-10 00:42:00,
2013-06-09 18:52:00,73.0,36.0,-100.00,WSW,239,10.0,16.0,25,-99.99,,,0.00,499.279999,,2013-06-10 00:52:00,
2013-06-09 19:02:00,73.0,36.0,-100.00,WSW,239,10.0,16.0,25,-99.99,,,0.00,499.279999,,2013-06-10 01:02:00,
2013-06-09 19:12:00,73.0,36.0,-100.00,WSW,239,10.0,16.0,25,-99.99,,,0.00,499.279999,,2013-06-10 01:12:00,
2013-06-09 19:32:00,72.0,35.0,-100.00,West,264,8.0,14.0,24,-99.99,,,0.00,333.899994,,2013-06-10 01:32:00,
2013-06-09 19:42:00,72.0,35.0,-100.00,West,264,8.0,14.0,24,-99.99,,,0.00,333.899994,,2013-06-10 01:42:00,
2013-06-09 19:52:00,72.0,35.0,-100.00,West,264,8.0,14.0,24,-99.99,,,0.00,333.899994,,2013-06-10 01:52:00,
2013-06-09 20:02:00,72.0,35.0,-100.00,West,264,8.0,14.0,24,-99.99,,,0.00,333.899994,,2013-06-10 02:02:00,
2013-06-09 20:12:00,72.0,35.0,-100.00,West,264,8.0,14.0,24,-99.99,,,0.00,333.899994,,2013-06-10 02:12:00,
2013-06-09 20:32:00,69.0,35.0,-100.00,West,269,7.0,13.0,28,-99.99,,,0.00,175.720001,,2013-06-10 02:32:00,
2013-06-09 20:42:00,69.0,35.0,-100.00,West,269,7.0,13.0,28,-99.99,,,0.00,175.720001,,2013-06-10 02:42:00,
2013-06-09 20:52:00,69.0,35.0,-100.00,West,269,7.0,13.0,28,-99.99,,,0.00,175.720001,,2013-06-10 02:52:00,
2013-06-09 21:02:00,69.0,35.0,-100.00,West,269,7.0,13.0,28,-99.99,,,0.00,175.720001,,2013-06-10 03:02:00,
2013-06-09 21:12:00,69.0,35.0,-100.00,West,269,7.0,13.0,28,-99.99,,,0.00,175.720001,,2013-06-10 03:12:00,
2013-06-09 21:33:00,65.0,36.0,-100.00,WSW,256,5.0,9.0,34,-99.99,,,0.00,31.030001,,2013-06-10 03:33:00,
2013-06-09 21:43:00,65.0,36.0,-100.00,WSW,256,5.0,9.0,34,-99.99,,,0.00,31.030001,,2013-06-10 03:43:00,
2013-06-09 21:53:00,65.0,36.0,-100.00,WSW,256,5.0,9.0,34,-99.99,,,0.00,31.030001,,2013-06-10 03:53:00,
2013-06-09 22:03:00,65.0,36.0,-100.00,WSW,256,5.0,9.0,34,-99.99,,,0.00,31.030001,,2013-06-10 04:03:00,
2013-06-09 22:12:00,65.0,36.0,-100.00,WSW,256,5.0,9.0,34,-99.99,,,0.00,31.030001,,2013-06-10 04:12:00,
2013-06-09 22:33:00,55.0,41.0,-100.00,East,81,4.0,6.0,57,-99.99,,,-99.99,0.120000,,2013-06-10 04:33:00,
2013-06-09 22:42:00,55.0,41.0,-100.00,East,81,4.0,6.0,57,-99.99,,,-99.99,0.120000,,2013-06-10 04:42:00,
2013-06-09 22:52:00,55.0,41.0,-100.00,East,81,4.0,6.0,57,-99.99,,,-99.99,0.120000,,2013-06-10 04:52:00,
2013-06-09 23:02:00,55.0,41.0,-100.00,East,81,4.0,6.0,57,-99.99,,,-99.99,0.120000,,2013-06-10 05:02:00,
2013-06-09 23:12:00,55.0,41.0,-100.00,East,81,4.0,6.0,57,-99.99,,,-99.99,0.120000,,2013-06-10 05:12:00,
2013-06-09 23:32:00,55.0,39.0,-100.00,NE,48,3.0,5.0,54,-99.99,,,0.00,0.000000,,2013-06-10 05:32:00,
2013-06-09 23:42:00,55.0,39.0,-100.00,NE,48,3.0,5.0,54,-99.99,,,0.00,0.000000,,2013-06-10 05:42:00,
2013-06-09 23:52:00,55.0,39.0,-100.00,NE,48,3.0,5.0,54,-99.99,,,0.00,0.000000,,2013-06-10 05:52:00,